Location: Bremen
(53.0793°N, 8.8017°E)
Time: 05:02:37
(UTC+01:00)

Transit 2A - Visible Passes

Search period start: 27 February 2024 00:00
Search period end: 08 March 2024 00:00
Orbit: 600 x 953 km, 66.7° (Epoch: 26 February)

Date Brightness Start Highest point End Pass type
(mag) Time Alt. Az. Time Alt. Az. Time Alt. Az.
27 Feb 7.7 05:02:01 17° S 05:02:01 17° S 05:03:27 10° S visible
27 Feb 5.7 19:39:52 10° SSW 19:44:03 49° ESE 19:46:12 26° ENE visible
27 Feb 7.2 21:23:19 10° WSW 21:26:42 32° NW 21:26:42 32° NW visible
28 Feb 6.2 19:05:14 10° S 19:09:09 34° ESE 19:13:04 10° NE visible
28 Feb 6.6 20:47:58 10° WSW 20:52:07 44° NW 20:53:34 32° N visible
28 Feb 8.6 22:33:21 10° WNW 22:34:03 13° NW 22:34:03 13° NW visible
29 Feb 6.7 18:30:50 10° SSE 18:34:18 24° ESE 18:37:48 10° ENE visible
29 Feb 6.0 20:12:43 10° SW 20:17:00 59° NW 20:20:14 18° NNE visible
29 Feb 8.0 21:57:46 10° WNW 22:00:43 20° NNW 22:00:43 20° NNW visible
01 Mar 5.5 19:37:36 10° SW 19:41:57 82° NW 19:46:25 10° NE visible
01 Mar 7.7 21:22:11 10° W 21:25:42 23° NNW 21:27:13 19° N visible
02 Mar 5.5 19:02:37 10° SSW 19:06:56 71° SE 19:11:21 10° NE visible
02 Mar 7.4 20:46:40 10° W 20:50:26 27° NNW 20:53:36 14° NNE visible
02 Mar 8.4 22:32:20 10° NW 22:34:03 15° NNW 22:34:03 15° NNW visible
03 Mar 7.1 20:11:13 10° WSW 20:15:12 34° NW 20:19:21 10° NNE visible
03 Mar 8.1 21:56:48 10° NW 21:59:38 16° N 22:00:18 16° N visible
04 Mar 6.6 19:35:52 10° WSW 19:40:02 44° NW 19:44:22 10° NNE visible
04 Mar 8.1 21:21:14 10° WNW 21:24:16 18° NNW 21:26:28 13° NNE visible
04 Mar 8.7 23:06:10 10° NNW 23:06:55 12° NNW 23:06:55 12° NNW visible
05 Mar 6.1 19:00:38 10° SW 19:04:54 60° NW 19:09:22 10° NE visible
05 Mar 7.9 20:45:38 10° WNW 20:48:55 20° NNW 20:52:19 10° NNE visible
05 Mar 8.3 22:30:56 10° NNW 22:33:01 15° N 22:33:01 15° N visible
06 Mar 7.7 20:10:04 10° W 20:13:36 23° NNW 20:17:17 10° NNE visible
06 Mar 8.1 21:55:36 10° NW 21:58:19 15° N 21:59:03 15° NNE visible
06 Mar 8.8 23:39:14 10° NNW 23:39:29 11° NNW 23:39:29 11° NNW visible
07 Mar 7.4 19:34:32 10° W 19:38:19 28° NNW 19:42:16 10° NNE visible
07 Mar 8.2 21:20:10 10° NW 21:22:55 16° N 21:25:03 12° NNE visible
07 Mar 8.5 23:04:12 10° NNW 23:05:29 15° NNW 23:05:29 15° NNW visible
